This is the latest recevied weather packets stored in our database for station/object W7TJC. If no packets are shown the sender has not sent any weather packets the latest 10 day(s).
| Time | Temp. | Humidity | Pressure | Rain* | Wind** | Luminosity | Snow |
|---|---|---|---|---|---|---|---|
| 1777417367 | 12.78° C | 74% | 1024 hPa | 0 mm | - | 37 W/m² | - |
| 1777417064 | 12.78° C | 73% | 1024.3 hPa | 0 mm | - | 42 W/m² | - |
| 1777416760 | 12.78° C | 73% | 1024 hPa | 0 mm | - | 61 W/m² | - |
| 1777416456 | 13.33° C | 71% | 1024 hPa | 0 mm | - | 63 W/m² | - |
| 1777416152 | 12.78° C | 72% | 1024.1 hPa | 0 mm | - | 60 W/m² | - |
| 1777415852 | 12.78° C | 72% | 1023.9 hPa | 0 mm | - | 64 W/m² | - |
| 1777415547 | 12.78° C | 72% | 1023.9 hPa | 0 mm | - | 75 W/m² | - |
| 1777415243 | 12.78° C | 71% | 1023.9 hPa | 0 mm | - | 92 W/m² | - |
| 1777414939 | 12.78° C | 72% | 1024 hPa | 0 mm | - | 95 W/m² | - |
| 1777414638 | 12.22° C | 75% | 1024.3 hPa | 0 mm | - | 88 W/m² | - |
| 1777414333 | 12.22° C | 76% | 1024.3 hPa | 0 mm | - | 49 W/m² | - |
| 1777414028 | 12.22° C | 75% | 1024.4 hPa | 0 mm | - | 35 W/m² | - |
| 1777413723 | 12.22° C | 74% | 1024.1 hPa | 0 mm | - | 30 W/m² | - |
| 1777413419 | 12.78° C | 73% | 1024.3 hPa | 0 mm | - | 34 W/m² | - |
| 1777413115 | 12.78° C | 72% | 1024.3 hPa | 0 mm | - | 35 W/m² | - |
| 1777412811 | 13.33° C | 71% | 1024.3 hPa | 0 mm | - | 49 W/m² | - |
| 1777412504 | 13.33° C | 72% | 1023.9 hPa | 0 mm | - | 60 W/m² | - |
| 1777412202 | 13.33° C | 69% | 1024 hPa | 0 mm | - | 76 W/m² | - |
| 1777411898 | 13.33° C | 70% | 1024 hPa | 0 mm | - | 84 W/m² | - |
| 1777411597 | 13.33° C | 70% | 1024.1 hPa | 0 mm | - | 161 W/m² | - |
| 1777411293 | 13.33° C | 70% | 1024.4 hPa | 0 mm | - | 122 W/m² | - |
| 1777410992 | 13.33° C | 70% | 1024.3 hPa | 0 mm | - | 55 W/m² | - |
| 1777410686 | 13.33° C | 70% | 1024.1 hPa | 0 mm | - | 94 W/m² | - |
| 1777410381 | 13.33° C | 70% | 1024.4 hPa | 0 mm | - | 95 W/m² | - |
| 1777410080 | 13.33° C | 70% | 1024.1 hPa | 0 mm | - | 89 W/m² | - |
* Rain latest hour (hover to see other rain measurements)
** Current wind speed in m/s (hover to see current wind gust speed)